Regional Weather Roundup
Issued by NWS Sioux Falls, SD

Home | Current Version | Previous Version | Text Only | Print | Product List | Glossary On
Versions: 1 2 3 4 5 6 7 8 9 10 11 12 13 14 15 16 17 18 19 20 21 22 23 24 25 26 27 28 29 30 31 32 33 34 35 36 37 38 39 40 41 42 43 44 45 46 47 48 49 50
000
ASUS43 KFSD 012102
RWRFSD

WEATHER ROUNDUP FOR SE SOUTH DAKOTA/SW MINNESOTA/NW IOWA
NATIONAL WEATHER SERVICE SIOUX FALLS SD
400 PM CDT SUN MAY 01 2016

NOTE: "FAIR" INDICATES FEW OR NO CLOUDS BELOW 12,000 FEET WITH NO
SIGNIFICANT WEATHER AND OR OBSTRUCTIONS TO VISIBILITY.


SDZ038>040-050-052>070-012200-
SOUTHEAST SOUTH DAKOTA

CITY           SKY/WX    TMP DP  RH WIND       PRES   REMARKS
BROOKINGS      MOSUNNY   57  33  40 NE10      30.16F
CHAMBERLAIN    NOT AVBL
HURON          SUNNY     61  33  35 NE10G20   30.19F
MADISON        FAIR      55  36  47 NE12G17   30.17S
MITCHELL       MOSUNNY   59  39  47 NE7       30.19F
SIOUX FALLS    PTSUNNY   55  38  52 NE10      30.16F
WINNER         FAIR      59  34  39 N15G24    30.22F
YANKTON        PTSUNNY   54  39  58 N12       30.16F
$$

MNZ071-072-080-081-089-090-097-098-012200-
SOUTHWEST MINNESOTA

CITY           SKY/WX    TMP DP  RH WIND       PRES   REMARKS
FAIRMONT       CLOUDY    55  34  44 NE15      30.10S
JACKSON        CLOUDY    55  36  47 VRB14G20  30.12S
LUVERNE        CLOUDY    54  34  47 N8        30.15F
MARSHALL       SUNNY     58  33  39 NE15      30.15F
MONTEVIDEO     SUNNY     63  32  31 N10G16    30.17F
REDWOOD FALLS  MOSUNNY   61  31  32 VRB7      30.13F
TRACY          MOSUNNY   59  36  43 NE12G17   30.14F
WINDOM         PTSUNNY   55  36  47 N10G16    30.13S
WORTHINGTON    CLOUDY    54  38  54 N14       30.14S
$$

IAZ001>003-012>014-020>022-031-032-NEZ013-014-SDZ071-012200-
NORTHWEST IOWA

CITY           SKY/WX    TMP DP  RH WIND       PRES   REMARKS
CHEROKEE       LGT RAIN  51  46  84 N6        30.13S
DENISON        CLOUDY    48  45  87 NE13      30.10S
ESTHERVILLE    CLOUDY    54  41  61 N16       30.11R
LE MARS        CLOUDY    54  41  62 N13G20    30.15F
SHELDON        CLOUDY    52  43  71 N16       30.12F
SIOUX CITY     CLOUDY    55  41  59 N13       30.15S
SPENCER        CLOUDY    54  39  57 NE14      30.12S
STORM LAKE     CLOUDY    48  45  87 N9        30.12S
$$

ABBREVIATIONS USED IN REMARKS
   TC - TEMPERATURE IN CELSIUS
  WCI - WIND CHILL INDEX
   HX - HEAT INDEX
  VSB - VISIBILITY





USA.gov is the U.S. government's official web portal to all federal, state and local government web resources and services.